Content
SEND FEEDBACK

Daily
Averages
Monthly
Summary
United States of America

KANSAS CITY - UNIVERSITY OF MISSOURI, MISSOURI


Home > North America > United States > Missouri
Elevation: 900 feet     Latitude: 39 02N     Longitude: 094 35W

WEATHER
 
SELECT A DAY
Number of Records: 194,340;   Date Range: 1/1/95 - 12/18/14
 
SHARE

PRINT THIS DATA

[ ← Previous Day ]
WEATHER ALMANAC - JANUARY 6, 2013
[ Next Day → ]
[ °C ]   °F
Weather ElementAverageHighLow
Temperature30.7 °F39.9 °F (2:54 pm)24.1 °F (5:54 am)
Dewpoint18.4 °F21 °F (1:54 am)16 °F (5:54 am)
Humidity61.4 %75 % (6:54 am)40 % (2:54 pm)
Barometer30.33 in30.41 in (10:54 am)30.22 in (1:54 am)
Wind Speed5.7 mph13.8 mph (4:54 am)
Wind Gust21.9 mph (4:54 am)
Weather ElementAverage
Visibility9.2 mi
Wind DirectionSW (220.8 °)

Weather ElementTotal
Precipitation---
Heating Degree Days33 (Base 65)
Averaged from 25 records on January 6, 2013
WEATHER CONDITIONS BREAKOUT
WIND DIRECTION BREAKOUT
WEATHER BY HOUR - JANUARY 6, 2013
[ °C ]   °F
Local TimeTemperatureDewpointHumidityBarometerVisibilityWind DirectionWind SpeedGust SpeedPrecipitationEventsConditions
1:54 AM30.0 °F21.0 °F69 %30.22 in10.0 miNW (320°)10.4 mph19.6 mphClear
2:54 AM28.0 °F19.0 °F69 %30.25 in10.0 miNW (310°)6.9 mphPartly Cloudy
3:54 AM27.0 °F19.0 °F72 %30.26 in10.0 miWest (280°)9.2 mph17.3 mphClear
4:42 AM26.6 °F17.6 °F69 %30.26 in8.0 miWNW (300°)8.1 mphMostly Cloudy
4:54 AM25.0 °F17.1 °F72 %30.29 in8.0 miNNW (330°)13.8 mph21.9 mphOvercast
5:54 AM24.1 °F16.0 °F71 %30.33 in8.0 miNNW (330°)10.4 mph19.6 mphOvercast
6:54 AM24.1 °F17.1 °F75 %30.34 in7.0 miNW (320°)6.9 mphOvercast
7:54 AM24.1 °F17.1 °F75 %30.35 in6.0 miWNW (290°)4.6 mphHaze
8:19 AM24.8 °F17.6 °F74 %30.35 in6.0 miWNW (290°)4.6 mphHaze
8:54 AM25.0 °F18.0 °F75 %30.38 in6.0 miWest (270°)5.8 mphHaze
9:54 AM28.0 °F18.0 °F66 %30.40 in10.0 miWNW (300°)10.4 mphClear
10:54 AM30.9 °F19.0 °F61 %30.41 in10.0 miWSW (250°)5.8 mphClear
11:54 AM32.0 °F19.0 °F59 %30.40 in10.0 miWSW (250°)4.6 mphClear
12:54 PM36.0 °F19.0 °F50 %30.37 in10.0 miWSW (250°)6.9 mphClear
1:54 PM37.9 °F18.0 °F45 %30.35 in10.0 miNorth (350°)4.6 mphClear
2:54 PM39.9 °F17.1 °F40 %30.34 in10.0 miWSW (240°)3.5 mphClear
3:54 PM39.0 °F18.0 °F43 %30.34 in10.0 miSW (230°)5.8 mphClear
4:54 PM37.9 °F17.1 °F43 %30.34 in10.0 miCalmClear
5:54 PM35.6 °F17.6 °F48 %30.32 in10.0 miCalmClear
6:54 PM32.0 °F19.0 °F59 %30.36 in10.0 miCalmClear
7:54 PM34.0 °F19.9 °F56 %30.34 in10.0 miSSW (210°)3.5 mphClear
8:54 PM30.9 °F19.0 °F61 %30.33 in10.0 miCalmClear
9:54 PM34.0 °F19.0 °F54 %30.32 in10.0 miCalmClear
10:54 PM30.9 °F19.9 °F64 %30.31 in10.0 miSSW (200°)9.2 mphClear
11:54 PM30.9 °F19.9 °F64 %30.30 in10.0 miSSW (200°)6.9 mphClear
Hourly data recorded from KMKC, located miles away from Kansas City - University of Missouri, Missouri







STORIES FROM OUR PARTNERS